Time,TemperatureF,DewpointF,PressureIn,WindDirection,WindDirectionDegrees,WindSpeedMPH,WindSpeedGustMPH,Humidity,HourlyPrecipIn,Conditions,Clouds,dailyrainin,SoftwareType,DateUTC
2013-05-13 00:01:00,60.4,39.0,25.31,South,184,0.0,2.0,46,0.00,,,0.00,weatherlink.com 1.10,2013-05-13 06:01:00,
2013-05-13 00:16:00,59.0,39.0,25.31,NNE,32,1.0,4.0,48,0.00,,,0.00,weatherlink.com 1.10,2013-05-13 06:16:00,
2013-05-13 00:31:00,57.8,39.0,25.31,NE,47,0.0,3.0,50,0.00,,,0.00,weatherlink.com 1.10,2013-05-13 06:31:00,
2013-05-13 00:46:00,56.6,39.0,25.31,SE,131,0.0,2.0,53,0.00,,,0.00,weatherlink.com 1.10,2013-05-13 06:46:00,
2013-05-13 01:01:00,55.6,39.0,25.31,West,260,0.0,1.0,55,0.00,,,0.00,weatherlink.com 1.10,2013-05-13 07:01:00,
2013-05-13 01:16:00,54.5,39.0,25.31,SE,127,2.0,3.0,57,0.00,,,0.00,weatherlink.com 1.10,2013-05-13 07:16:00,
2013-05-13 01:31:00,53.6,39.0,25.30,SE,134,1.0,2.0,59,0.00,,,0.00,weatherlink.com 1.10,2013-05-13 07:31:00,
2013-05-13 01:46:00,53.7,39.0,25.30,NW,321,0.0,2.0,59,0.00,,,0.00,weatherlink.com 1.10,2013-05-13 07:46:00,
2013-05-13 02:01:00,52.0,40.0,25.30,NW,308,1.0,3.0,63,0.00,,,0.00,weatherlink.com 1.10,2013-05-13 08:01:00,
2013-05-13 02:16:00,52.4,40.0,25.30,West,276,1.0,1.0,62,0.00,,,0.00,weatherlink.com 1.10,2013-05-13 08:16:00,
2013-05-13 02:31:00,52.9,40.0,25.29,SW,228,1.0,1.0,61,0.00,,,0.00,weatherlink.com 1.10,2013-05-13 08:31:00,
2013-05-13 02:46:00,52.9,40.0,25.30,West,270,1.0,1.0,61,0.00,,,0.00,weatherlink.com 1.10,2013-05-13 08:46:00,
2013-05-13 03:01:00,52.7,40.0,25.29,SW,214,1.0,2.0,62,0.00,,,0.00,weatherlink.com 1.10,2013-05-13 09:01:00,
2013-05-13 03:16:00,52.9,40.0,25.30,WSW,255,2.0,3.0,61,0.00,,,0.00,weatherlink.com 1.10,2013-05-13 09:16:00,
2013-05-13 03:31:00,52.0,40.0,25.30,SSW,213,0.0,1.0,63,0.00,,,0.00,weatherlink.com 1.10,2013-05-13 09:31:00,
2013-05-13 03:46:00,51.1,39.0,25.30,WSW,255,4.0,5.0,64,0.00,,,0.00,weatherlink.com 1.10,2013-05-13 09:46:00,
2013-05-13 04:01:00,51.3,39.0,25.30,West,280,3.0,7.0,63,0.00,,,0.00,weatherlink.com 1.10,2013-05-13 10:01:00,
2013-05-13 04:16:00,51.6,40.0,25.30,WNW,294,4.0,7.0,64,0.00,,,0.00,weatherlink.com 1.10,2013-05-13 10:16:00,
2013-05-13 04:31:00,52.3,41.0,25.30,WNW,293,5.0,9.0,65,0.00,,,0.00,weatherlink.com 1.10,2013-05-13 10:31:00,
2013-05-13 04:46:00,52.0,41.0,25.30,West,276,5.0,9.0,66,0.00,,,0.00,weatherlink.com 1.10,2013-05-13 10:46:00,
2013-05-13 05:01:00,52.3,41.0,25.30,West,269,6.0,10.0,65,0.00,,,0.00,weatherlink.com 1.10,2013-05-13 11:01:00,
2013-05-13 05:16:00,52.8,41.0,25.30,WSW,250,10.0,12.0,64,0.00,,,0.00,weatherlink.com 1.10,2013-05-13 11:16:00,
2013-05-13 05:31:00,52.4,40.0,25.31,West,270,6.0,11.0,64,0.00,,,0.00,weatherlink.com 1.10,2013-05-13 11:31:00,
2013-05-13 05:46:00,52.4,40.0,25.31,West,273,8.0,13.0,64,0.00,,,0.00,weatherlink.com 1.10,2013-05-13 11:46:00,
2013-05-13 06:01:00,52.2,40.0,25.31,West,274,6.0,13.0,64,0.00,,,0.00,weatherlink.com 1.10,2013-05-13 12:01:00,
2013-05-13 06:16:00,51.6,40.0,25.32,West,272,7.0,11.0,66,0.00,,,0.00,weatherlink.com 1.10,2013-05-13 12:16:00,
2013-05-13 06:31:00,52.2,41.0,25.32,NW,307,7.0,10.0,65,0.00,,,0.00,weatherlink.com 1.10,2013-05-13 12:31:00,
2013-05-13 06:46:00,53.1,40.0,25.32,West,278,3.0,9.0,62,0.00,,,0.00,weatherlink.com 1.10,2013-05-13 12:46:00,
2013-05-13 07:01:00,54.6,41.0,25.33,West,281,5.0,7.0,60,0.00,,,0.00,weatherlink.com 1.10,2013-05-13 13:01:00,
2013-05-13 07:16:00,55.9,41.0,25.33,WNW,285,4.0,9.0,57,0.00,,,0.00,weatherlink.com 1.10,2013-05-13 13:16:00,
2013-05-13 07:31:00,57.8,41.0,25.33,West,277,8.0,11.0,54,0.00,,,0.00,weatherlink.com 1.10,2013-05-13 13:31:00,
2013-05-13 07:46:00,60.2,41.0,25.33,WNW,290,6.0,9.0,49,0.00,,,0.00,weatherlink.com 1.10,2013-05-13 13:46:00,
2013-05-13 08:01:00,63.0,41.0,25.33,West,277,6.0,10.0,45,0.00,,,0.00,weatherlink.com 1.10,2013-05-13 14:01:00,
2013-05-13 08:17:00,65.6,42.0,25.34,West,278,5.0,10.0,42,0.00,,,0.00,weatherlink.com 1.10,2013-05-13 14:17:00,
2013-05-13 08:32:00,68.3,42.0,25.34,WSW,243,4.0,10.0,39,0.00,,,0.00,weatherlink.com 1.10,2013-05-13 14:32:00,
2013-05-13 08:47:00,72.1,41.0,25.34,NNW,328,5.0,7.0,33,0.00,,,0.00,weatherlink.com 1.10,2013-05-13 14:47:00,
2013-05-13 09:02:00,75.2,40.0,25.34,West,280,5.0,9.0,28,0.00,,,0.00,weatherlink.com 1.10,2013-05-13 15:02:00,
2013-05-13 09:17:00,75.6,40.0,25.34,WNW,295,3.0,7.0,28,0.00,,,0.00,weatherlink.com 1.10,2013-05-13 15:17:00,
2013-05-13 09:32:00,78.6,39.0,25.34,NW,318,5.0,7.0,24,0.00,,,0.00,weatherlink.com 1.10,2013-05-13 15:32:00,
2013-05-13 09:47:00,80.7,37.0,25.34,NW,318,4.0,9.0,21,0.00,,,0.00,weatherlink.com 1.10,2013-05-13 15:47:00,
2013-05-13 10:02:00,82.4,36.0,25.33,NNW,329,7.0,9.0,19,0.00,,,0.00,weatherlink.com 1.10,2013-05-13 16:02:00,
2013-05-13 10:17:00,83.2,35.0,25.33,NNE,32,6.0,14.0,18,0.00,,,0.00,weatherlink.com 1.10,2013-05-13 16:17:00,
2013-05-13 10:32:00,84.0,35.0,25.33,NW,319,6.0,12.0,17,0.00,,,0.00,weatherlink.com 1.10,2013-05-13 16:32:00,
2013-05-13 10:47:00,84.4,33.0,25.34,West,277,2.0,12.0,16,0.00,,,0.00,weatherlink.com 1.10,2013-05-13 16:47:00,
2013-05-13 11:02:00,85.4,33.0,25.34,NW,316,10.0,10.0,15,0.00,,,0.00,weatherlink.com 1.10,2013-05-13 17:02:00,
2013-05-13 11:17:00,85.3,34.0,25.33,NNW,342,11.0,12.0,16,0.00,,,0.00,weatherlink.com 1.10,2013-05-13 17:17:00,
2013-05-13 11:32:00,86.3,33.0,25.33,NW,314,4.0,8.0,15,0.00,,,0.00,weatherlink.com 1.10,2013-05-13 17:32:00,
2013-05-13 11:47:00,87.3,34.0,25.33,North,360,6.0,9.0,15,0.00,,,0.00,weatherlink.com 1.10,2013-05-13 17:47:00,
2013-05-13 12:02:00,87.7,35.0,25.33,NNW,339,6.0,9.0,15,0.00,,,0.00,weatherlink.com 1.10,2013-05-13 18:02:00,
2013-05-13 12:17:00,87.2,32.0,25.33,NNW,338,7.0,11.0,14,0.00,,,0.00,weatherlink.com 1.10,2013-05-13 18:17:00,
2013-05-13 12:32:00,86.9,32.0,25.32,NW,326,4.0,10.0,14,0.00,,,0.00,weatherlink.com 1.10,2013-05-13 18:32:00,
2013-05-13 12:48:00,86.4,34.0,25.32,WNW,285,3.0,7.0,15,0.00,,,0.00,weatherlink.com 1.10,2013-05-13 18:48:00,
2013-05-13 13:02:00,87.5,33.0,25.32,West,277,6.0,10.0,14,0.00,,,0.00,weatherlink.com 1.10,2013-05-13 19:02:00,
2013-05-13 13:17:00,88.1,35.0,25.31,NE,38,2.0,8.0,15,0.00,,,0.00,weatherlink.com 1.10,2013-05-13 19:17:00,
2013-05-13 13:32:00,89.7,34.0,25.31,NNW,338,4.0,8.0,14,0.00,,,0.00,weatherlink.com 1.10,2013-05-13 19:32:00,
2013-05-13 13:47:00,88.1,33.0,25.31,WNW,302,9.0,14.0,14,0.00,,,0.00,weatherlink.com 1.10,2013-05-13 19:47:00,
2013-05-13 14:02:00,88.3,33.0,25.30,NNW,333,4.0,10.0,14,0.00,,,0.00,weatherlink.com 1.10,2013-05-13 20:02:00,
2013-05-13 14:17:00,87.4,33.0,25.30,NE,46,4.0,11.0,14,0.00,,,0.00,weatherlink.com 1.10,2013-05-13 20:17:00,
2013-05-13 14:32:00,89.8,35.0,25.30,WSW,242,6.0,14.0,14,0.00,,,0.00,weatherlink.com 1.10,2013-05-13 20:32:00,
2013-05-13 14:47:00,87.0,34.0,25.30,West,274,9.0,15.0,15,0.00,,,0.00,weatherlink.com 1.10,2013-05-13 20:47:00,
2013-05-13 15:02:00,86.5,34.0,25.29,ESE,108,4.0,10.0,15,0.00,,,0.00,weatherlink.com 1.10,2013-05-13 21:02:00,
2013-05-13 15:17:00,87.2,36.0,25.29,SW,214,5.0,13.0,16,0.00,,,0.00,weatherlink.com 1.10,2013-05-13 21:17:00,
2013-05-13 15:32:00,89.3,34.0,25.28,WNW,288,4.0,17.0,14,0.00,,,0.00,weatherlink.com 1.10,2013-05-13 21:32:00,
2013-05-13 15:48:00,85.9,33.0,25.28,West,274,2.0,9.0,15,0.00,,,0.00,weatherlink.com 1.10,2013-05-13 21:48:00,
2013-05-13 16:03:00,86.4,34.0,25.27,SW,226,6.0,7.0,15,0.00,,,0.00,weatherlink.com 1.10,2013-05-13 22:03:00,
2013-05-13 16:18:00,86.6,34.0,25.27,SSE,151,4.0,10.0,15,0.00,,,0.00,weatherlink.com 1.10,2013-05-13 22:18:00,
2013-05-13 16:33:00,85.6,34.0,25.27,WSW,255,4.0,12.0,16,0.00,,,0.00,weatherlink.com 1.10,2013-05-13 22:33:00,
2013-05-13 16:48:00,87.6,35.0,25.26,West,269,11.0,13.0,15,0.00,,,0.00,weatherlink.com 1.10,2013-05-13 22:48:00,
2013-05-13 17:03:00,87.5,33.0,25.26,WSW,246,5.0,13.0,14,0.00,,,0.00,weatherlink.com 1.10,2013-05-13 23:03:00,
2013-05-13 17:18:00,87.0,34.0,25.26,SSW,205,6.0,11.0,15,0.00,,,0.00,weatherlink.com 1.10,2013-05-13 23:18:00,
2013-05-13 17:33:00,86.8,34.0,25.25,NE,49,1.0,8.0,15,0.00,,,0.00,weatherlink.com 1.10,2013-05-13 23:33:00,
2013-05-13 17:48:00,86.5,34.0,25.25,WSW,248,7.0,11.0,15,0.00,,,0.00,weatherlink.com 1.10,2013-05-13 23:48:00,
2013-05-13 18:03:00,86.4,34.0,25.25,WSW,250,4.0,12.0,15,0.00,,,0.00,weatherlink.com 1.10,2013-05-14 00:03:00,
2013-05-13 18:18:00,86.8,34.0,25.24,NW,308,3.0,4.0,15,0.00,,,0.00,weatherlink.com 1.10,2013-05-14 00:18:00,
2013-05-13 18:33:00,85.3,33.0,25.24,WNW,295,2.0,4.0,15,0.00,,,0.00,weatherlink.com 1.10,2013-05-14 00:33:00,
2013-05-13 18:48:00,85.5,33.0,25.24,West,273,1.0,4.0,15,0.00,,,0.00,weatherlink.com 1.10,2013-05-14 00:48:00,
2013-05-13 19:03:00,86.0,35.0,25.24,SE,132,2.0,4.0,16,0.00,,,0.00,weatherlink.com 1.10,2013-05-14 01:03:00,
2013-05-13 19:18:00,84.3,38.0,25.24,SSW,212,5.0,11.0,19,0.00,,,0.00,weatherlink.com 1.10,2013-05-14 01:18:00,
2013-05-13 19:33:00,81.1,39.0,25.24,SSW,199,9.0,11.0,22,0.00,,,0.00,weatherlink.com 1.10,2013-05-14 01:33:00,
2013-05-13 19:48:00,78.6,38.0,25.24,South,181,6.0,12.0,23,0.00,,,0.00,weatherlink.com 1.10,2013-05-14 01:48:00,
2013-05-13 20:03:00,76.6,38.0,25.24,SW,214,5.0,11.0,25,0.00,,,0.00,weatherlink.com 1.10,2013-05-14 02:03:00,
2013-05-13 20:19:00,74.6,39.0,25.24,SSW,210,8.0,13.0,28,0.00,,,0.00,weatherlink.com 1.10,2013-05-14 02:19:00,
2013-05-13 20:33:00,74.2,39.0,25.24,ESE,114,11.0,14.0,28,0.00,,,0.00,weatherlink.com 1.10,2013-05-14 02:33:00,
2013-05-13 20:48:00,73.4,39.0,25.24,SW,228,9.0,14.0,29,0.00,,,0.00,weatherlink.com 1.10,2013-05-14 02:48:00,
2013-05-13 21:03:00,72.2,40.0,25.25,SSW,210,9.0,13.0,31,0.00,,,0.00,weatherlink.com 1.10,2013-05-14 03:03:00,
2013-05-13 21:18:00,71.2,40.0,25.24,South,174,8.0,13.0,32,0.00,,,0.00,weatherlink.com 1.10,2013-05-14 03:18:00,
2013-05-13 21:33:00,69.6,40.0,25.25,SSW,207,9.0,13.0,34,0.00,,,0.00,weatherlink.com 1.10,2013-05-14 03:33:00,
2013-05-13 21:48:00,68.6,40.0,25.24,SSE,160,6.0,12.0,35,0.00,,,0.00,weatherlink.com 1.10,2013-05-14 03:48:00,
2013-05-13 22:03:00,67.4,39.0,25.24,SSE,150,7.0,13.0,36,0.00,,,0.00,weatherlink.com 1.10,2013-05-14 04:03:00,
2013-05-13 22:18:00,66.9,40.0,25.24,SSW,208,9.0,14.0,38,0.00,,,0.00,weatherlink.com 1.10,2013-05-14 04:18:00,
2013-05-13 22:33:00,66.1,40.0,25.24,SSW,211,15.0,17.0,39,0.00,,,0.00,weatherlink.com 1.10,2013-05-14 04:33:00,
2013-05-13 22:48:00,66.8,41.0,25.23,WSW,248,9.0,14.0,39,0.00,,,0.00,weatherlink.com 1.10,2013-05-14 04:48:00,
2013-05-13 23:03:00,67.3,41.0,25.22,SE,131,8.0,14.0,39,0.00,,,0.00,weatherlink.com 1.10,2013-05-14 05:03:00,
2013-05-13 23:18:00,67.5,41.0,25.22,SW,215,9.0,13.0,38,0.00,,,0.00,weatherlink.com 1.10,2013-05-14 05:18:00,
2013-05-13 23:33:00,67.1,41.0,25.22,SW,231,8.0,11.0,39,0.00,,,0.00,weatherlink.com 1.10,2013-05-14 05:33:00,
2013-05-13 23:48:00,65.9,41.0,25.22,WSW,250,6.0,12.0,40,0.00,,,0.00,weatherlink.com 1.10,2013-05-14 05:48:00,